Wind_Speed
38 34 32 29 28 29 31 35 37 39 41 44 46 49 50 51 54 57 60 61 60 59 57 56 54 52 51 52 52 50 52 53 56 62 58 50 48 45 38 33 30 27 24 23
35 34 32 31 31 32 33 35 37 40 43 45 46 48 49 49 51 53 57 58 59 59 56 53 50 49 50 53 53 54 55 59 62 53 44 40 36 31 26 23 22 20 20 20
33 31 32 33 34 35 37 38 40 43 46 48 50 50 50 51 52 54 57 58 57 53 50 50 50 50 52 53 54 56 57 53 43 33 30 29 24 20 19 18 17 16 16 16
31 31 32 36 38 39 41 44 46 48 50 51 48 46 47 49 51 54 57 54 49 46 48 50 51 53 52 50 50 49 43 32 25 25 21 16 15 15 16 15 14 15 18 22
31 32 34 36 38 40 43 46 48 50 49 47 46 47 48 48 52 55 55 50 44 45 46 47 47 47 44 42 42 38 29 23 19 13 10 11 13 14 13 15 18 20 18 18
32 33 35 38 39 41 45 48 47 48 48 48 48 47 47 47 49 49 46 43 44 46 46 45 42 41 41 39 32 23 15 9 6 6 8 11 14 16 16 16 14 14 13 12
33 36 38 40 43 46 48 49 50 51 51 49 46 44 42 40 38 36 37 39 41 41 41 41 41 38 30 18 8 3 3 4 6 7 9 14 17 15 13 13 13 12 11 12
35 38 40 41 43 45 47 47 46 46 42 38 35 34 34 33 33 34 33 33 36 36 36 33 25 16 6 5 8 7 5 5 8 9 12 14 12 14 16 16 16 15 13 11
37 40 41 41 42 44 44 43 40 37 31 29 29 29 31 31 29 27 28 30 28 24 16 7 5 7 11 12 11 10 8 7 8 9 10 13 13 14 14 14 15 15 14 12
38 39 40 40 41 39 37 35 32 29 27 26 26 26 26 24 23 25 24 18 11 6 10 13 16 16 16 15 14 13 13 12 13 15 15 13 13 12 13 13 14 16 16 15
38 37 38 37 35 32 30 29 28 28 25 23 22 21 22 20 22 18 10 11 17 20 20 21 23 22 21 19 20 22 27 29 27 23 17 15 14 13 15 17 19 20 22 23
35 35 33 29 27 25 23 22 23 24 24 19 17 18 17 16 9 12 23 25 22 22 26 30 34 37 38 37 36 34 32 28 24 20 18 16 17 18 20 21 23 24 24 24
32 30 25 23 19 20 18 17 18 17 17 16 15 13 11 4 17 26 27 23 29 34 36 39 41 40 36 32 30 28 26 24 22 20 19 20 21 22 24 25 25 26 26 26
23 18 18 19 21 17 14 16 15 13 13 11 9 6 5 17 26 27 24 33 35 34 36 37 37 36 32 28 26 25 23 21 21 22 23 24 24 25 26 26 26 26 25 24
14 16 18 20 19 14 14 14 11 8 8 5 1 7 16 22 26 26 26 33 32 34 34 34 33 32 30 26 24 22 21 21 22 24 26 28 29 30 31 32 31 29 26 24
15 18 17 15 14 13 15 13 8 6 6 5 9 18 23 23 26 27 29 30 30 31 31 30 29 27 24 22 21 21 20 21 23 27 32 35 36 36 37 37 34 33 30 27
10 10 10 9 11 16 16 11 8 8 8 10 21 26 25 23 26 34 35 30 31 31 29 27 25 23 21 19 19 19 20 21 25 31 35 37 38 39 40 39 37 35 33 30
12 8 5 7 10 14 14 10 10 11 13 22 29 27 22 23 35 42 36 33 32 29 27 25 22 21 19 18 18 18 20 24 29 35 40 42 43 43 42 41 40 40 38 33
12 11 11 12 10 10 11 12 14 17 25 32 31 25 26 43 48 41 35 32 29 27 25 23 21 20 18 17 17 19 21 26 31 37 41 43 44 45 44 43 42 42 42 36
10 13 14 12 9 10 14 16 19 27 37 37 31 29 42 48 43 37 33 29 27 25 24 21 20 19 18 18 18 19 23 28 33 37 40 43 45 47 47 46 45 43 42 39
7 9 9 10 12 15 17 19 28 39 43 37 32 34 46 45 39 34 30 27 24 24 22 21 20 19 19 19 18 20 23 28 33 36 39 42 45 46 47 49 50 48 44 40
4 5 9 12 15 17 20 28 37 43 43 36 32 34 42 41 34 30 27 25 23 22 21 20 20 20 19 19 19 21 24 28 31 33 37 40 43 45 47 48 51 53 52 47
5 7 10 14 17 21 28 36 42 44 41 35 31 35 43 40 33 28 26 25 22 21 20 20 19 19 19 19 21 22 25 28 30 33 36 39 41 43 45 48 51 54 56 53
9 12 15 18 22 29 35 41 44 43 38 31 34 46 46 38 32 28 27 25 22 21 20 19 19 19 19 20 21 24 26 28 30 33 36 39 41 42 44 46 49 52 55 55
12 16 19 23 30 36 40 43 44 42 38 33 38 46 43 37 33 30 26 24 22 21 19 18 19 19 19 20 22 24 26 27 30 33 37 39 40 42 43 45 47 49 51 53
17 19 23 29 36 40 42 44 43 40 36 31 34 42 40 34 32 30 26 23 22 20 18 17 17 18 18 19 21 24 25 27 30 32 35 37 40 41 43 43 44 46 48 49
19 22 28 33 38 40 42 42 39 34 34 36 43 46 39 34 32 29 25 23 21 19 17 15 15 15 16 17 19 21 23 25 28 31 33 35 37 39 41 43 43 44 45 46
Wind_Direction
271 273 274 273 270 270 271 273 275 277 277 281 286 289 289 288 286 286 285 285 288 291 293 295 297 297 296 298 298 295 295 295 298 302 302 301 300 301 301 299 295 295 295 296
266 270 274 276 275 272 273 275 279 282 285 292 295 293 291 288 287 285 285 288 292 294 294 295 296 297 296 297 297 295 295 295 301 305 304 302 303 306 308 306 303 297 296 301
261 266 271 272 276 280 283 285 288 290 293 297 297 294 292 290 289 287 286 288 290 290 290 291 292 294 296 295 294 296 298 302 306 306 305 306 308 311 312 310 308 311 312 307
265 268 271 277 281 287 292 295 296 296 297 296 294 291 288 286 286 287 290 293 291 291 291 293 295 297 298 298 298 302 306 311 310 309 313 320 324 323 320 317 314 313 309 309
273 276 280 285 290 293 294 294 297 297 295 293 294 293 291 290 292 293 294 295 294 294 296 297 298 299 300 302 305 308 310 311 311 317 331 336 336 331 325 316 314 318 326 326
277 281 285 288 290 292 293 293 296 295 292 292 293 290 285 286 289 289 291 292 295 297 298 300 300 301 304 305 307 307 308 319 342 355 352 349 345 340 338 333 329 331 341 354
278 284 289 292 296 297 296 298 297 297 297 299 299 295 293 292 293 294 296 297 298 299 301 300 300 302 306 313 335 15 59 48 22 14 4 351 345 357 12 18 23 24 28 35
289 292 293 294 294 294 296 297 298 299 302 301 300 298 296 297 299 301 304 306 306 307 307 306 305 311 336 80 87 83 83 44 31 24 4 6 36 54 51 42 37 27 19 21
290 291 293 293 293 294 296 298 300 300 299 297 297 296 298 300 303 308 311 314 316 320 327 348 43 78 95 100 92 87 80 58 48 40 45 60 63 58 49 36 25 16 12 8
287 289 290 290 291 294 295 296 297 297 299 296 294 298 304 309 312 317 326 336 344 44 86 89 90 90 93 98 94 87 80 75 77 83 84 68 59 44 27 13 1 352 345 339
287 286 283 282 285 286 288 294 296 293 289 288 291 300 306 313 320 337 30 82 99 100 97 93 91 89 88 87 87 94 98 96 90 84 74 58 40 20 3 352 344 339 337 333
278 277 276 277 277 286 287 285 285 286 290 289 289 300 313 325 351 101 114 111 102 94 96 99 99 96 93 93 94 94 91 86 79 69 55 37 18 4 355 351 345 342 343 337
275 273 269 266 271 275 278 278 279 283 285 284 292 308 329 37 124 127 117 107 106 103 102 103 103 101 99 96 92 88 81 74 66 54 40 28 18 8 0 354 349 343 342 336
274 271 265 263 263 269 273 266 270 271 270 277 294 325 90 129 136 131 118 120 114 107 108 107 105 102 99 96 90 83 75 66 56 45 35 26 17 10 5 1 356 350 346 340
264 267 269 270 270 262 250 254 262 257 251 257 260 115 127 133 132 130 127 124 115 112 110 107 102 100 97 92 85 77 67 56 47 39 32 26 22 18 14 10 4 1 1 359
258 258 264 265 257 233 237 246 242 218 199 168 129 127 129 128 133 131 129 124 115 112 109 105 100 96 93 87 79 69 58 48 41 37 32 29 26 22 18 15 13 13 14 13
261 264 264 254 231 228 237 242 207 176 161 140 131 131 129 134 135 135 132 123 120 117 113 106 101 97 90 81 71 60 51 46 43 40 37 34 30 27 24 22 22 17 14 13
268 258 250 249 244 232 227 213 180 162 149 137 135 134 137 142 140 138 132 126 123 119 114 108 102 95 87 76 66 58 51 47 44 42 38 35 31 29 26 25 22 19 15 15
253 244 249 259 252 224 198 177 167 156 144 139 132 131 138 138 138 137 131 127 123 119 113 107 101 93 84 73 65 58 53 50 47 44 40 37 34 31 29 27 25 23 21 21
254 239 242 246 221 181 166 166 161 152 147 141 131 130 140 140 138 136 130 125 123 118 112 108 100 91 82 73 65 58 55 51 49 45 41 38 36 34 32 30 27 24 23 24
250 229 213 190 168 160 162 163 156 153 151 145 137 137 147 147 145 139 132 126 125 119 115 109 99 89 80 74 66 59 56 52 49 45 41 38 36 34 33 31 29 26 24 23
208 193 177 165 161 160 158 155 154 157 157 155 150 148 153 154 146 140 137 131 127 122 116 108 98 88 82 75 66 59 54 51 48 44 41 39 36 34 33 32 31 29 29 29
214 193 174 164 160 154 151 153 156 159 159 159 159 158 156 159 153 143 139 136 131 125 117 108 99 89 81 73 66 58 53 50 47 44 42 40 38 36 34 33 33 32 33 35
193 179 167 160 154 149 151 156 159 160 158 153 152 155 156 158 154 148 142 139 134 128 120 111 101 90 80 73 66 59 55 51 48 45 44 42 40 38 36 35 35 35 36 38
168 161 157 155 152 151 156 159 160 161 157 151 152 160 160 159 152 150 146 141 138 131 123 114 103 92 81 73 66 60 56 53 50 46 44 43 42 40 38 37 36 37 37 38
154 154 155 155 153 155 159 160 161 162 165 166 162 162 162 159 153 151 150 146 140 132 126 117 105 93 81 71 63 58 55 52 50 48 45 42 40 39 38 37 36 37 37 37
153 156 157 155 155 156 158 158 160 166 171 167 162 160 160 158 157 156 152 147 141 136 129 120 107 93 81 69 59 53 49 46 45 43 41 38 36 35 36 36 36 35 35 35
Height
5757 5757 5757 5756 5757 5757 5756 5753 5751 5750 5746 5743 5741 5738 5733 5728 5719 5709 5699 5691 5687 5683 5677 5671 5665 5660 5654 5649 5643 5638 5633 5628 5622 5618 5612 5603 5598 5593 5587 5583 5579 5576 5573 5571
5749 5748 5748 5747 5746 5745 5745 5744 5742 5740 5736 5732 5729 5723 5717 5711 5705 5697 5688 5681 5674 5666 5662 5658 5653 5648 5643 5638 5631 5625 5620 5615 5611 5605 5599 5592 5588 5583 5579 5576 5573 5570 5567 5565
5740 5740 5739 5737 5736 5735 5734 5732 5731 5728 5725 5719 5714 5708 5703 5697 5691 5683 5676 5670 5664 5657 5652 5647 5642 5637 5632 5626 5620 5614 5609 5604 5599 5594 5590 5586 5582 5579 5576 5573 5570 5567 5565 5563
5729 5730 5730 5729 5726 5725 5723 5720 5717 5713 5709 5704 5699 5694 5688 5683 5677 5671 5664 5659 5653 5648 5642 5637 5632 5626 5620 5614 5608 5603 5599 5595 5592 5589 5587 5584 5581 5577 5574 5571 5568 5566 5564 5560
5717 5718 5718 5717 5716 5714 5710 5706 5704 5700 5695 5689 5685 5680 5673 5667 5662 5657 5651 5647 5643 5637 5632 5627 5621 5614 5608 5603 5599 5595 5592 5591 5590 5588 5587 5585 5581 5577 5573 5570 5567 5564 5562 5558
5707 5707 5708 5709 5706 5703 5700 5695 5692 5686 5680 5676 5671 5667 5662 5657 5652 5646 5642 5638 5633 5628 5621 5615 5608 5603 5600 5595 5591 5590 5589 5589 5589 5589 5588 5585 5582 5578 5574 5570 5566 5563 5561 5557
5698 5697 5696 5695 5691 5687 5686 5683 5677 5671 5666 5662 5657 5652 5648 5645 5640 5636 5634 5629 5623 5617 5610 5604 5599 5595 5591 5589 5588 5589 5590 5591 5592 5591 5589 5586 5582 5578 5574 5571 5567 5564 5561 5559
5686 5684 5685 5682 5679 5675 5672 5667 5662 5659 5655 5651 5646 5642 5637 5633 5631 5628 5624 5619 5614 5608 5601 5594 5590 5588 5588 5589 5590 5591 5593 5594 5594 5593 5590 5587 5584 5581 5578 5575 5571 5567 5564 5562
5674 5673 5671 5668 5665 5662 5658 5654 5652 5649 5646 5642 5639 5635 5631 5628 5625 5622 5617 5612 5607 5601 5596 5592 5590 5590 5591 5592 5594 5594 5595 5596 5595 5594 5592 5590 5588 5586 5583 5579 5574 5570 5567 5564
5662 5659 5657 5654 5652 5650 5648 5646 5643 5640 5638 5635 5631 5629 5627 5624 5620 5617 5612 5608 5604 5601 5599 5597 5596 5596 5597 5598 5598 5598 5599 5598 5598 5597 5597 5596 5594 5591 5587 5583 5579 5574 5569 5565
5650 5648 5645 5643 5642 5641 5639 5637 5636 5633 5630 5628 5627 5624 5622 5619 5616 5612 5610 5608 5607 5606 5605 5604 5604 5605 5605 5605 5605 5604 5604 5604 5604 5604 5604 5602 5599 5595 5591 5586 5580 5574 5568 5562
5641 5637 5636 5635 5633 5633 5633 5631 5628 5625 5624 5624 5623 5621 5618 5615 5613 5613 5613 5613 5612 5611 5610 5610 5610 5611 5612 5615 5616 5616 5615 5613 5613 5612 5610 5606 5602 5597 5592 5586 5579 5572 5566 5559
5629 5627 5628 5627 5628 5626 5625 5624 5622 5621 5621 5620 5620 5618 5616 5614 5614 5615 5617 5618 5618 5618 5618 5618 5619 5620 5622 5624 5625 5624 5623 5621 5619 5617 5614 5609 5604 5598 5591 5585 5579 5571 5565 5557
5621 5621 5621 5620 5620 5621 5620 5618 5618 5618 5618 5618 5617 5616 5616 5616 5618 5620 5622 5623 5624 5624 5626 5627 5628 5628 5630 5631 5632 5631 5630 5628 5625 5622 5618 5612 5605 5599 5592 5585 5578 5570 5563 5555
5615 5615 5614 5612 5613 5615 5615 5614 5615 5615 5616 5616 5616 5617 5618 5620 5622 5625 5627 5628 5630 5632 5634 5635 5636 5636 5636 5638 5638 5638 5636 5634 5631 5627 5622 5615 5608 5600 5592 5584 5576 5568 5560 5553
5608 5607 5607 5607 5608 5609 5610 5611 5613 5613 5614 5615 5616 5618 5621 5623 5626 5629 5631 5634 5637 5639 5641 5643 5643 5643 5644 5646 5646 5644 5642 5639 5635 5630 5622 5615 5608 5600 5592 5584 5575 5566 5559 5552
5603 5602 5603 5603 5604 5605 5606 5608 5610 5611 5613 5615 5618 5621 5624 5626 5629 5633 5637 5640 5643 5645 5647 5649 5650 5650 5652 5652 5651 5649 5646 5643 5639 5633 5626 5619 5611 5604 5595 5586 5578 5570 5562 5554
5599 5598 5599 5600 5601 5601 5603 5605 5607 5610 5612 5616 5621 5625 5627 5629 5632 5638 5642 5646 5649 5651 5654 5655 5657 5657 5658 5657 5656 5654 5651 5647 5642 5635 5628 5621 5614 5606 5598 5590 5581 5572 5563 5555
5594 5595 5596 5595 5597 5599 5600 5603 5606 5610 5614 5620 5626 5629 5630 5633 5639 5645 5649 5653 5656 5658 5660 5662 5663 5663 5663 5662 5660 5658 5655 5651 5646 5640 5633 5626 5619 5611 5602 5594 5585 5576 5567 5558
5590 5591 5591 5592 5594 5596 5599 5602 5606 5611 5617 5625 5631 5634 5638 5641 5646 5651 5655 5659 5662 5664 5666 5668 5668 5668 5668 5666 5664 5662 5659 5655 5650 5644 5639 5632 5624 5616 5608 5599 5590 5581 5572 5563
5586 5586 5587 5589 5592 5595 5599 5603 5607 5614 5622 5629 5635 5640 5644 5648 5652 5657 5661 5665 5668 5670 5671 5673 5673 5672 5672 5671 5669 5667 5664 5660 5655 5650 5644 5637 5629 5622 5614 5605 5596 5586 5576 5567
5584 5584 5585 5588 5591 5596 5599 5603 5610 5618 5626 5632 5638 5644 5649 5654 5659 5663 5667 5670 5673 5675 5677 5677 5677 5677 5677 5676 5674 5673 5670 5665 5660 5655 5649 5642 5636 5628 5621 5613 5604 5593 5583 5573
5583 5584 5585 5588 5592 5596 5601 5607 5615 5623 5629 5635 5640 5645 5652 5659 5664 5668 5672 5675 5678 5680 5681 5682 5682 5683 5682 5681 5680 5677 5674 5669 5665 5660 5654 5648 5643 5636 5629 5621 5612 5602 5592 5582
5581 5582 5585 5589 5593 5598 5604 5611 5619 5627 5633 5638 5642 5648 5655 5663 5669 5673 5677 5680 5683 5685 5686 5687 5687 5688 5688 5686 5684 5681 5678 5674 5671 5666 5660 5655 5649 5643 5636 5628 5620 5611 5603 5594
5580 5583 5586 5590 5595 5602 5608 5615 5623 5630 5636 5641 5647 5653 5661 5667 5672 5678 5682 5685 5687 5688 5690 5692 5692 5692 5692 5691 5689 5686 5683 5680 5676 5671 5666 5660 5655 5649 5643 5636 5629 5621 5614 5605
5581 5584 5588 5593 5599 5605 5611 5618 5626 5632 5638 5644 5651 5659 5667 5673 5677 5682 5686 5688 5690 5693 5695 5696 5697 5697 5696 5695 5694 5692 5689 5686 5682 5677 5672 5667 5662 5657 5651 5644 5638 5631 5624 5617
5583 5586 5590 5596 5602 5609 5616 5623 5629 5634 5639 5646 5654 5664 5671 5677 5682 5685 5689 5692 5694 5696 5698 5700 5701 5701 5700 5700 5698 5697 5694 5691 5686 5682 5678 5673 5669 5664 5658 5652 5645 5639 5632 5626